Location: Conflandey
(47.7287°N, 6.0456°E)
Time: 03:43:45
(UTC+00:00)

Okean O Rocket - Pass Details

Date: 24 October 2021
Orbit: 623 x 643 km, 98.2° (Epoch: 28 November)

Event Time Altitude Azimuth Distance (km) Brightness Sun altitude
Rises 17:34:27 0° 160° (SSE) 2,893 4.8 -11.3°
Reaches altitude 10° 17:36:37 10° 159° (SSE) 1,992 4.0 -11.6°
Maximum altitude 17:40:57 76° 74° (ENE) 650 1.5 -12.4°
Drops below altitude 10° 17:45:20 10° 349° (N) 2,016 4.3 -13.1°
Sets 17:47:32 0° 348° (NNW) 2,932 5.1 -13.5°
